Theta_e
320 319 320 321 321 322 323 324 325 326 326 324 324 323 324 325 326 326 327 326 323 321 320 319 319 320 321 321 322 321 320 319 319 315 313 313 315 316 317 320 318 316 314
314 316 317 318 318 319 321 322 323 324 325 324 323 325 324 324 324 323 323 321 316 316 316 315 315 316 318 319 320 320 318 319 318 313 310 305 310 316 316 316 312 309 307
311 305 304 305 312 311 314 319 321 322 322 323 320 318 314 313 313 314 315 316 315 315 316 316 316 317 317 318 318 318 319 317 316 315 312 303 302 312 313 308 306 303 302
298 297 297 298 299 300 302 304 306 308 312 315 315 315 314 313 311 311 311 312 313 313 314 314 315 315 316 318 319 319 319 317 316 315 316 311 308 306 305 305 301 301 299
298 298 297 298 298 300 300 300 302 303 304 305 307 308 308 308 307 308 308 308 309 310 311 311 311 311 313 314 315 315 315 315 316 312 308 309 310 309 306 303 298 296 294
297 298 299 300 299 299 299 300 301 301 303 302 303 304 304 305 304 305 306 307 306 306 307 307 307 308 309 310 311 311 311 312 314 313 310 308 307 305 307 307 301 298 291
299 299 299 300 299 299 299 299 299 300 301 301 301 302 302 302 302 303 304 305 304 304 306 305 304 305 306 307 308 307 308 308 308 310 311 308 306 305 304 306 301 294 288
298 299 299 300 299 299 299 298 298 298 299 299 299 300 300 300 301 303 304 305 305 306 305 303 303 303 303 304 304 303 303 303 305 305 306 307 304 303 301 300 299 296 291
297 298 297 297 297 298 298 297 297 298 298 298 298 298 298 298 299 300 302 304 304 305 304 302 301 301 301 301 301 300 300 301 299 302 302 301 300 296 296 296 297 297 294
296 295 296 296 297 297 297 297 297 297 297 297 297 298 297 297 298 298 299 300 301 301 300 299 299 298 298 297 296 296 299 299 299 298 298 296 294 292 291 292 293 293 293
294 294 295 295 295 295 296 296 296 296 296 296 296 296 296 296 296 296 296 297 298 299 298 297 296 296 295 295 294 294 294 295 296 297 294 294 291 289 288 288 288 289 290
293 293 293 293 293 293 294 293 293 293 294 294 294 295 295 295 294 294 295 295 296 296 296 296 294 294 294 293 293 292 293 293 294 294 292 292 290 287 287 286 286 287 289
291 292 292 292 292 292 291 291 292 292 292 292 292 292 293 293 293 293 294 293 293 294 294 294 294 294 293 292 292 292 292 292 294 292 292 291 289 288 287 286 286 285 287
290 291 290 290 290 290 290 290 291 290 289 290 290 289 290 290 291 291 291 291 292 291 292 292 293 293 292 292 291 290 290 290 291 291 292 291 289 289 287 286 286 285 284
289 289 289 289 288 288 288 289 289 288 288 287 287 287 288 288 288 288 288 289 288 289 289 289 290 290 290 291 289 288 289 289 289 290 290 290 289 289 289 287 285 284 284
288 288 288 287 287 286 286 287 286 286 286 285 285 286 285 284 284 284 285 286 286 287 287 287 287 287 289 292 292 291 288 288 288 288 288 289 286 287 289 289 289 287 284
287 287 286 286 286 284 285 283 284 284 283 282 283 282 282 281 281 282 282 283 284 285 285 285 286 286 287 291 291 291 289 288 287 287 287 286 286 285 285 288 289 288 288
287 286 286 285 284 283 282 282 282 282 281 280 280 281 280 280 280 280 281 281 282 282 283 284 285 285 286 290 291 290 288 288 287 287 286 286 285 284 285 285 284 284 284
286 285 284 284 282 281 281 280 279 279 279 279 279 280 280 279 279 279 279 280 280 281 282 283 284 284 285 289 289 289 287 286 286 286 285 285 285 285 287 283 282 281 279
284 282 281 281 280 279 279 278 278 278 277 277 278 278 278 278 277 277 278 279 280 280 281 282 283 283 284 287 288 288 286 285 285 285 284 284 284 285 286 283 281 278 277
281 280 279 278 278 278 278 277 277 276 276 276 276 276 276 276 277 277 278 278 278 279 279 280 281 282 283 284 287 288 286 285 284 284 284 282 285 286 285 285 281 280 277
278 279 277 276 277 277 276 275 274 275 274 274 273 273 273 274 275 275 276 277 277 277 277 278 279 281 282 283 285 286 287 288 285 284 284 283 284 286 286 285 281 282 278
278 277 275 274 275 274 274 272 272 273 272 270 269 270 272 273 274 273 273 273 275 276 276 277 277 278 281 282 284 285 285 287 285 286 285 284 283 285 285 286 282 280 274
274 273 272 271 271 272 272 271 271 270 268 267 268 270 270 270 270 272 272 272 273 274 275 276 276 277 278 280 282 283 282 283 284 285 284 283 282 284 283 282 283 278 274
271 270 270 270 269 270 269 268 269 268 266 267 267 268 268 267 268 269 270 272 274 275 275 276 276 276 276 278 282 282 283 282 283 284 280 279 279 279 279 279 277 273 272
269 268 267 267 266 266 266 266 265 265 264 264 265 265 265 265 267 267 268 273 275 276 278 278 277 277 279 281 282 282 283 285 287 282 277 277 277 277 277 273 270 270 270
Wind_Speed
11 8 8 9 8 6 7 8 8 8 5 2 3 2 4 4 4 5 7 7 6 7 6 4 4 4 5 5 6 4 6 4 2 1 3 1 4 4 3 3 7 8 7
5 5 7 6 6 6 8 7 7 6 5 3 2 3 3 3 2 1 5 6 6 6 5 5 5 5 4 6 6 5 3 4 5 4 1 2 2 3 4 4 5 4 4
3 5 7 6 6 7 6 4 2 1 2 4 1 1 2 1 2 2 3 5 6 6 7 6 5 5 4 6 6 5 7 5 4 6 4 2 5 2 2 5 3 4 2
6 7 7 6 7 6 6 7 6 6 4 1 2 4 3 4 3 2 2 5 5 6 6 6 5 5 4 7 7 5 6 5 5 1 5 3 5 4 4 2 2 1 3
6 7 7 7 6 6 7 6 7 6 6 6 4 2 4 2 3 3 6 5 5 6 6 5 6 5 4 5 6 5 5 4 3 4 2 4 3 2 3 3 4 1 0
8 8 6 6 6 6 7 7 9 7 8 7 7 5 6 6 4 4 5 5 4 4 6 6 5 5 5 5 5 6 6 6 4 4 4 4 4 4 4 3 3 3 3
6 7 8 6 6 6 8 6 7 7 7 8 8 7 6 6 6 6 5 6 4 4 7 5 6 5 6 6 5 6 7 6 4 7 6 4 4 3 3 3 3 3 2
4 7 7 7 7 9 9 8 9 8 8 7 7 6 5 3 4 5 5 4 5 6 5 6 6 7 6 6 5 4 4 4 5 6 5 5 4 4 3 5 6 3 3
6 6 9 8 7 7 6 5 6 6 7 7 6 6 6 6 6 7 5 4 5 5 7 6 6 7 7 6 5 5 6 5 5 6 5 5 4 4 4 3 4 5 6
9 8 8 7 6 7 5 8 8 7 7 8 6 6 6 6 6 5 7 7 6 5 6 7 7 7 6 6 6 5 6 6 6 4 6 6 4 5 4 4 4 3 5
8 7 7 6 6 8 10 11 12 11 11 9 7 7 7 6 6 6 6 7 6 7 7 7 7 7 6 6 6 6 6 8 8 7 8 10 6 5 5 4 3 4 4
7 7 7 6 8 8 9 8 7 7 9 8 8 8 8 8 7 8 8 7 8 7 8 7 7 7 7 7 7 10 8 9 10 10 8 11 5 6 5 4 6 5 5
7 6 7 8 7 6 5 5 5 7 9 8 8 10 10 10 10 10 9 9 9 10 8 8 10 11 10 9 9 10 10 10 12 10 11 11 7 9 6 7 7 5 5
7 6 5 3 3 4 6 7 9 10 11 11 11 10 11 11 11 11 11 10 10 11 11 10 12 11 11 11 10 11 12 12 12 12 12 12 12 14 11 10 11 8 8
5 3 4 7 9 12 12 12 13 13 13 12 12 12 12 12 12 13 13 13 11 11 11 12 12 12 11 10 10 10 12 13 14 13 13 13 14 15 14 9 10 10 8
7 9 10 11 13 14 13 12 12 11 10 10 10 10 11 11 11 12 13 12 12 12 11 11 12 13 11 18 20 16 12 13 15 15 13 13 11 16 20 20 16 16 13
7 8 8 8 9 10 9 10 10 9 9 8 8 8 8 10 11 12 12 14 15 14 13 13 12 15 15 22 21 21 15 15 15 16 14 12 11 14 13 18 17 17 19
7 7 6 7 7 6 8 9 9 8 9 8 10 11 12 14 14 14 14 14 14 14 14 15 15 15 15 23 23 21 16 16 17 16 16 16 15 14 15 14 15 15 13
5 5 5 5 6 7 8 7 7 6 6 10 12 14 14 14 15 15 15 14 15 15 15 15 16 16 19 21 23 18 14 16 18 15 15 15 15 17 24 15 16 13 9
4 5 6 4 6 6 6 6 7 8 10 12 13 13 13 14 15 14 15 14 14 16 14 18 15 18 19 22 24 19 11 15 13 13 14 19 18 19 25 15 13 14 12
6 6 6 4 5 6 5 7 7 9 11 11 12 12 13 14 14 15 14 15 15 15 15 17 17 17 15 18 25 24 13 13 13 12 12 10 25 27 27 26 15 15 11
3 4 4 4 4 4 6 8 9 11 11 12 13 13 13 12 12 15 14 15 15 16 16 16 16 13 14 18 21 25 25 23 15 15 11 10 20 24 26 22 19 19 16
2 3 5 6 3 6 8 9 11 12 13 13 12 12 13 12 12 14 15 13 13 13 15 14 15 17 15 13 23 24 26 26 17 14 15 17 18 24 23 28 25 20 11
3 3 5 7 11 11 11 9 10 10 10 11 12 11 12 12 12 10 10 10 11 12 12 13 14 15 16 14 13 11 11 17 16 18 12 13 15 20 17 13 17 11 10
5 3 9 8 9 10 10 10 10 9 11 11 11 11 10 11 12 10 10 10 11 13 14 13 14 14 16 15 27 26 15 11 13 15 5 7 7 8 7 7 5 6 8
8 8 8 7 8 8 8 9 8 9 9 11 9 9 9 10 10 11 12 15 21 25 25 26 21 15 26 34 34 33 33 29 24 11 7 8 9 9 7 7 7 8 11
Wind_Direction
214 200 195 195 197 194 188 197 187 207 156 168 169 193 217 222 229 221 234 237 235 234 224 230 239 233 229 231 219 216 221 235 198 264 290 310 25 26 51 99 124 130 127
181 186 199 197 194 189 203 208 205 197 187 160 192 183 180 221 232 226 246 239 240 248 233 231 237 237 248 250 237 208 218 222 179 181 117 280 304 61 22 72 96 108 124
111 34 48 40 57 51 22 40 34 218 218 208 148 51 18 343 314 258 264 253 229 228 229 234 242 249 226 252 244 218 213 232 211 196 163 168 224 156 48 31 73 116 113
80 78 62 54 53 50 53 65 58 45 34 59 219 223 220 246 249 252 270 277 238 243 249 251 250 259 252 252 253 237 228 204 220 208 234 237 150 182 172 139 29 88 153
58 72 66 70 49 37 36 30 27 21 5 1 357 316 294 295 305 310 308 306 289 268 272 268 268 262 260 262 260 251 222 217 187 199 199 229 223 201 150 184 172 198 46
99 86 61 51 51 33 32 24 19 11 10 6 354 340 308 311 312 309 297 298 301 281 266 271 269 271 271 270 270 260 248 227 201 224 226 211 184 199 193 174 157 180 190
59 82 85 59 45 38 39 34 24 12 2 3 356 347 336 327 313 299 288 294 289 277 274 265 269 266 259 260 255 253 248 238 215 220 224 230 237 217 172 193 146 164 169
104 70 65 61 37 26 22 18 14 2 356 359 351 345 332 323 305 303 307 295 284 277 282 269 261 263 268 271 267 264 269 270 257 249 230 247 224 232 188 168 150 160 181
107 72 43 36 25 29 30 19 8 1 357 349 338 329 325 322 309 303 294 285 281 286 288 273 271 262 258 259 258 251 252 241 245 239 229 227 238 221 206 185 173 156 189
71 55 55 49 37 31 23 26 16 6 341 334 324 308 312 303 295 300 298 293 294 292 300 294 279 274 267 262 262 266 265 251 250 244 237 231 233 213 206 196 199 199 175
81 72 62 43 35 32 28 23 17 5 358 349 337 331 315 318 312 305 299 291 295 294 288 275 274 267 266 258 253 253 255 250 256 245 233 239 204 208 203 200 193 202 171
88 68 55 43 33 24 18 11 3 3 3 354 346 336 330 333 323 315 306 305 295 291 275 275 264 256 249 246 245 256 250 242 250 251 248 250 225 228 202 196 209 195 190
80 63 45 38 28 19 4 4 10 10 2 355 355 358 357 350 345 334 325 319 306 304 288 274 270 269 256 239 228 237 247 243 247 242 236 242 215 232 216 208 204 193 188
61 53 46 52 36 28 18 12 15 12 3 0 2 0 355 346 339 333 331 328 323 314 305 290 280 266 259 252 247 228 224 228 234 233 233 233 216 227 213 208 213 199 191
87 89 50 29 23 17 9 9 9 4 358 354 353 350 344 342 339 338 333 326 319 311 300 296 286 275 267 267 250 236 245 246 238 230 226 228 225 221 218 213 212 193 199
45 33 27 22 17 11 4 2 357 352 348 347 342 339 339 335 332 329 327 320 313 308 301 297 286 282 271 268 256 242 243 240 240 248 238 231 218 213 207 214 223 209 196
43 28 18 22 17 6 356 351 342 337 342 332 329 327 325 325 326 322 321 321 320 313 305 299 289 284 279 270 262 252 243 245 240 237 236 233 227 207 205 211 214 217 228
43 23 16 6 12 360 352 338 340 336 330 328 331 333 337 331 328 327 324 319 310 310 305 301 295 287 282 281 275 262 251 253 248 238 232 230 227 215 203 199 193 212 214
52 36 18 5 357 351 334 325 320 319 319 338 337 336 332 323 320 321 318 314 312 311 305 298 295 287 286 283 277 270 259 257 254 246 236 226 232 221 208 205 207 199 194
52 16 8 2 349 321 304 316 330 339 346 337 326 325 321 320 316 312 312 313 307 302 302 299 293 288 286 283 281 273 260 262 259 251 243 229 220 217 211 204 205 205 182
32 15 351 309 280 289 324 344 339 351 331 327 323 323 322 319 312 315 315 313 307 303 304 300 300 295 286 286 284 280 267 257 263 252 247 236 229 220 213 203 202 206 165
357 322 310 283 294 333 353 351 352 337 328 326 328 326 318 315 318 315 314 314 311 310 311 308 306 305 305 294 290 289 277 269 265 258 253 246 229 222 215 212 196 194 172
294 317 298 297 278 27 20 347 343 336 333 326 322 319 318 318 317 313 312 313 314 313 313 315 312 312 313 309 304 293 293 285 272 266 246 234 215 223 216 208 189 181 172
294 263 255 355 358 0 0 347 332 332 324 318 319 316 318 317 312 309 307 311 312 312 311 309 307 308 306 307 303 292 282 280 279 271 243 217 203 211 214 211 191 182 171
237 5 20 359 343 341 333 328 327 326 324 321 319 316 316 316 314 307 308 308 305 305 310 310 308 310 307 308 309 312 297 278 272 278 214 203 198 205 206 187 159 131 136
11 11 5 342 322 321 311 310 316 323 320 319 319 316 315 316 313 314 311 309 312 316 313 315 314 311 308 311 312 309 309 304 274 269 218 215 206 198 186 152 136 142 143